Wetterdaten: Sonntag, 20.03.2016
Datum Zeit Temperatur Luftfeuchte Luftdruck Regen Wind Richtung Richtung Sonnenschein ET UV Solar Taupunkt Windchill Windben
20.03.2016 00:00 3,8 C 79 % 1021,2 hPa 0,0 l/m 0,0 km/h (0 Bft) NW 308 0 min 0,000 mm 0,0 UV-I 0 W/m 0,5 C 3,8 C 0,0 km/h (0 Bft)
20.03.2016 00:05 3,8 C 79 % 1021,2 hPa 0,0 l/m 0,0 km/h (0 Bft) NW 311 0 min 0,000 mm 0,0 UV-I 0 W/m 0,5 C 3,8 C 0,0 km/h (0 Bft)
20.03.2016 00:10 3,8 C 79 % 1021,2 hPa 0,0 l/m 0,0 km/h (0 Bft) NW 311 0 min 0,000 mm 0,0 UV-I 0 W/m 0,5 C 3,8 C 0,0 km/h (0 Bft)
20.03.2016 00:15 3,8 C 79 % 1021,1 hPa 0,0 l/m 0,0 km/h (0 Bft) NW 311 0 min 0,000 mm 0,0 UV-I 0 W/m 0,5 C 3,8 C 0,0 km/h (0 Bft)
20.03.2016 00:20 3,8 C 79 % 1021,0 hPa 0,0 l/m 0,0 km/h (0 Bft) NW 311 0 min 0,000 mm 0,0 UV-I 0 W/m 0,5 C 3,8 C 0,0 km/h (0 Bft)
20.03.2016 00:25 3,8 C 79 % 1021,0 hPa 0,0 l/m 0,0 km/h (0 Bft) W-NW 288 0 min 0,000 mm 0,0 UV-I 0 W/m 0,5 C 3,8 C 0,0 km/h (0 Bft)
20.03.2016 00:30 3,8 C 79 % 1021,0 hPa 0,0 l/m 0,1 km/h (0 Bft) NW 304 0 min 0,000 mm 0,0 UV-I 0 W/m 0,5 C 3,8 C 3,2 km/h (1 Bft)
20.03.2016 00:35 3,7 C 78 % 1020,9 hPa 0,0 l/m 0,0 km/h (0 Bft) NW 304 0 min 0,000 mm 0,0 UV-I 0 W/m 0,2 C 3,7 C 1,6 km/h (1 Bft)
20.03.2016 00:40 3,7 C 78 % 1020,9 hPa 0,0 l/m 0,3 km/h (0 Bft) W-NW 294 0 min 0,000 mm 0,0 UV-I 0 W/m 0,2 C 3,7 C 4,8 km/h (1 Bft)
20.03.2016 00:45 3,7 C 78 % 1020,9 hPa 0,0 l/m 0,0 km/h (0 Bft) NW 311 0 min 0,000 mm 0,0 UV-I 0 W/m 0,2 C 3,7 C 0,0 km/h (0 Bft)
20.03.2016 00:50 3,7 C 78 % 1020,9 hPa 0,0 l/m 0,0 km/h (0 Bft) NW 315 0 min 0,000 mm 0,0 UV-I 0 W/m 0,2 C 3,7 C 0,0 km/h (0 Bft)
20.03.2016 00:55 3,7 C 78 % 1020,9 hPa 0,0 l/m 0,0 km/h (0 Bft) NW 315 0 min 0,000 mm 0,0 UV-I 0 W/m 0,2 C 3,7 C 0,0 km/h (0 Bft)
20.03.2016 01:00 3,7 C 78 % 1020,9 hPa 0,0 l/m 0,0 km/h (0 Bft) NW 315 0 min 0,000 mm 0,0 UV-I 0 W/m 0,2 C 3,7 C 0,0 km/h (0 Bft)
20.03.2016 01:05 3,7 C 78 % 1020,8 hPa 0,0 l/m 0,0 km/h (0 Bft) W-NW 285 0 min 0,000 mm 0,0 UV-I 0 W/m 0,2 C 3,7 C 0,0 km/h (0 Bft)
20.03.2016 01:10 3,7 C 78 % 1020,9 hPa 0,0 l/m 0,0 km/h (0 Bft) W-NW 285 0 min 0,000 mm 0,0 UV-I 0 W/m 0,2 C 3,7 C 0,0 km/h (0 Bft)
20.03.2016 01:15 3,7 C 77 % 1020,8 hPa 0,0 l/m 0,0 km/h (0 Bft) W-SW 254 0 min 0,000 mm 0,0 UV-I 0 W/m 0,1 C 3,7 C 0,0 km/h (0 Bft)
20.03.2016 01:20 3,7 C 78 % 1020,8 hPa 0,0 l/m 0,0 km/h (0 Bft) W-SW 254 0 min 0,000 mm 0,0 UV-I 0 W/m 0,2 C 3,7 C 0,0 km/h (0 Bft)
20.03.2016 01:25 3,7 C 77 % 1020,8 hPa 0,0 l/m 0,0 km/h (0 Bft) W-NW 286 0 min 0,000 mm 0,0 UV-I 0 W/m 0,1 C 3,7 C 0,0 km/h (0 Bft)
20.03.2016 01:30 3,7 C 77 % 1020,8 hPa 0,0 l/m 0,0 km/h (0 Bft) NW 320 0 min 0,000 mm 0,0 UV-I 0 W/m 0,1 C 3,7 C 1,6 km/h (1 Bft)
20.03.2016 01:35 3,7 C 77 % 1020,8 hPa 0,0 l/m 0,0 km/h (0 Bft) NW 320 0 min 0,000 mm 0,0 UV-I 0 W/m 0,1 C 3,7 C 0,0 km/h (0 Bft)
20.03.2016 01:40 3,6 C 77 % 1020,9 hPa 0,0 l/m 0,0 km/h (0 Bft) NW 320 0 min 0,000 mm 0,0 UV-I 0 W/m -0,0 C 3,6 C 0,0 km/h (0 Bft)
20.03.2016 01:45 3,6 C 77 % 1020,8 hPa 0,0 l/m 0,0 km/h (0 Bft) N-NW 346 0 min 0,000 mm 0,0 UV-I 0 W/m -0,0 C 3,6 C 1,6 km/h (1 Bft)
20.03.2016 01:50 3,6 C 77 % 1020,8 hPa 0,0 l/m 0,0 km/h (0 Bft) W-SW 257 0 min 0,000 mm 0,0 UV-I 0 W/m -0,0 C 3,6 C 1,6 km/h (1 Bft)
20.03.2016 01:55 3,6 C 78 % 1020,8 hPa 0,0 l/m 0,0 km/h (0 Bft) W-SW 257 0 min 0,000 mm 0,0 UV-I 0 W/m 0,1 C 3,6 C 0,0 km/h (0 Bft)
20.03.2016 02:00 3,6 C 78 % 1020,7 hPa 0,0 l/m 0,0 km/h (0 Bft) W-SW 257 0 min 0,000 mm 0,0 UV-I 0 W/m 0,1 C 3,6 C 0,0 km/h (0 Bft)
20.03.2016 02:05 3,6 C 77 % 1020,7 hPa 0,0 l/m 0,0 km/h (0 Bft) W-SW 257 0 min 0,000 mm 0,0 UV-I 0 W/m -0,0 C 3,6 C 0,0 km/h (0 Bft)
20.03.2016 02:10 3,6 C 78 % 1020,7 hPa 0,0 l/m 0,0 km/h (0 Bft) W-SW 257 0 min 0,000 mm 0,0 UV-I 0 W/m 0,1 C 3,6 C 0,0 km/h (0 Bft)
20.03.2016 02:15 3,6 C 78 % 1020,6 hPa 0,0 l/m 0,0 km/h (0 Bft) W-SW 257 0 min 0,000 mm 0,0 UV-I 0 W/m 0,1 C 3,6 C 0,0 km/h (0 Bft)
20.03.2016 02:20 3,6 C 78 % 1020,6 hPa 0,0 l/m 0,0 km/h (0 Bft) W-SW 257 0 min 0,000 mm 0,0 UV-I 0 W/m 0,1 C 3,6 C 0,0 km/h (0 Bft)
20.03.2016 02:25 3,6 C 78 % 1020,5 hPa 0,0 l/m 0,0 km/h (0 Bft) W-SW 257 0 min 0,000 mm 0,0 UV-I 0 W/m 0,1 C 3,6 C 0,0 km/h (0 Bft)
20.03.2016 02:30 3,6 C 78 % 1020,4 hPa 0,0 l/m 0,0 km/h (0 Bft) W-SW 240 0 min 0,000 mm 0,0 UV-I 0 W/m 0,1 C 3,6 C 0,0 km/h (0 Bft)
20.03.2016 02:35 3,6 C 78 % 1020,4 hPa 0,0 l/m 0,0 km/h (0 Bft) W 272 0 min 0,000 mm 0,0 UV-I 0 W/m 0,1 C 3,6 C 1,6 km/h (1 Bft)
20.03.2016 02:40 3,6 C 78 % 1020,4 hPa 0,0 l/m 0,0 km/h (0 Bft) W 273 0 min 0,000 mm 0,0 UV-I 0 W/m 0,1 C 3,6 C 0,0 km/h (0 Bft)
20.03.2016 02:45 3,6 C 78 % 1020,4 hPa 0,0 l/m 0,0 km/h (0 Bft) W 272 0 min 0,000 mm 0,0 UV-I 0 W/m 0,1 C 3,6 C 0,0 km/h (0 Bft)
20.03.2016 02:50 3,6 C 78 % 1020,3 hPa 0,0 l/m 0,6 km/h (0 Bft) W 276 0 min 0,000 mm 0,0 UV-I 0 W/m 0,1 C 3,6 C 6,4 km/h (2 Bft)
20.03.2016 02:55 3,6 C 78 % 1020,3 hPa 0,0 l/m 0,0 km/h (0 Bft) NW 310 0 min 0,000 mm 0,0 UV-I 0 W/m 0,1 C 3,6 C 0,0 km/h (0 Bft)
20.03.2016 03:00 3,6 C 78 % 1020,1 hPa 0,0 l/m 0,0 km/h (0 Bft) W-NW 296 0 min 0,000 mm 0,0 UV-I 0 W/m 0,1 C 3,6 C 1,6 km/h (1 Bft)
20.03.2016 03:05 3,6 C 79 % 1020,1 hPa 0,0 l/m 0,0 km/h (0 Bft) NW 313 0 min 0,000 mm 0,0 UV-I 0 W/m 0,3 C 3,6 C 0,0 km/h (0 Bft)
20.03.2016 03:10 3,6 C 79 % 1020,0 hPa 0,0 l/m 0,0 km/h (0 Bft) NW 313 0 min 0,000 mm 0,0 UV-I 0 W/m 0,3 C 3,6 C 0,0 km/h (0 Bft)
20.03.2016 03:15 3,6 C 79 % 1020,0 hPa 0,0 l/m 0,0 km/h (0 Bft) NW 318 0 min 0,000 mm 0,0 UV-I 0 W/m 0,3 C 3,6 C 1,6 km/h (1 Bft)
20.03.2016 03:20 3,6 C 79 % 1020,0 hPa 0,0 l/m 0,4 km/h (0 Bft) NW 317 0 min 0,000 mm 0,0 UV-I 0 W/m 0,3 C 3,6 C 6,4 km/h (2 Bft)
20.03.2016 03:25 3,6 C 79 % 1020,0 hPa 0,0 l/m 0,0 km/h (0 Bft) NW 317 0 min 0,000 mm 0,0 UV-I 0 W/m 0,3 C 3,6 C 0,0 km/h (0 Bft)
20.03.2016 03:30 3,6 C 79 % 1019,9 hPa 0,0 l/m 0,0 km/h (0 Bft) N-NW 329 0 min 0,000 mm 0,0 UV-I 0 W/m 0,3 C 3,6 C 0,0 km/h (0 Bft)
20.03.2016 03:35 3,6 C 79 % 1020,0 hPa 0,0 l/m 0,0 km/h (0 Bft) N-NW 330 0 min 0,000 mm 0,0 UV-I 0 W/m 0,3 C 3,6 C 0,0 km/h (0 Bft)
20.03.2016 03:40 3,6 C 79 % 1019,9 hPa 0,0 l/m 0,0 km/h (0 Bft) NW 314 0 min 0,000 mm 0,0 UV-I 0 W/m 0,3 C 3,6 C 0,0 km/h (0 Bft)
20.03.2016 03:45 3,6 C 79 % 1019,9 hPa 0,0 l/m 0,0 km/h (0 Bft) N-NO 27 0 min 0,000 mm 0,0 UV-I 0 W/m 0,3 C 3,6 C 0,0 km/h (0 Bft)
20.03.2016 03:50 3,6 C 79 % 1019,8 hPa 0,0 l/m 0,0 km/h (0 Bft) N-NO 27 0 min 0,000 mm 0,0 UV-I 0 W/m 0,3 C 3,6 C 0,0 km/h (0 Bft)
20.03.2016 03:55 3,6 C 79 % 1019,8 hPa 0,0 l/m 0,0 km/h (0 Bft) N-NO 27 0 min 0,000 mm 0,0 UV-I 0 W/m 0,3 C 3,6 C 0,0 km/h (0 Bft)
20.03.2016 04:00 3,6 C 79 % 1019,8 hPa 0,0 l/m 0,0 km/h (0 Bft) W 263 0 min 0,000 mm 0,0 UV-I 0 W/m 0,3 C 3,6 C 0,0 km/h (0 Bft)
20.03.2016 04:05 3,6 C 80 % 1019,8 hPa 0,0 l/m 0,0 km/h (0 Bft) W 263 0 min 0,000 mm 0,0 UV-I 0 W/m 0,5 C 3,6 C 0,0 km/h (0 Bft)
20.03.2016 04:10 3,6 C 79 % 1019,7 hPa 0,0 l/m 0,0 km/h (0 Bft) W 263 0 min 0,000 mm 0,0 UV-I 0 W/m 0,3 C 3,6 C 0,0 km/h (0 Bft)
20.03.2016 04:15 3,5 C 79 % 1019,6 hPa 0,0 l/m 0,0 km/h (0 Bft) NW 316 0 min 0,000 mm 0,0 UV-I 0 W/m 0,2 C 3,5 C 0,0 km/h (0 Bft)
20.03.2016 04:20 3,5 C 79 % 1019,5 hPa 0,0 l/m 0,3 km/h (0 Bft) NW 319 0 min 0,000 mm 0,0 UV-I 0 W/m 0,2 C 3,5 C 6,4 km/h (2 Bft)
20.03.2016 04:25 3,5 C 80 % 1019,4 hPa 0,0 l/m 0,0 km/h (0 Bft) W-NW 302 0 min 0,000 mm 0,0 UV-I 0 W/m 0,4 C 3,5 C 0,0 km/h (0 Bft)
20.03.2016 04:30 3,5 C 80 % 1019,4 hPa 0,0 l/m 0,0 km/h (0 Bft) W-NW 302 0 min 0,000 mm 0,0 UV-I 0 W/m 0,4 C 3,5 C 0,0 km/h (0 Bft)
20.03.2016 04:35 3,5 C 80 % 1019,4 hPa 0,0 l/m 0,0 km/h (0 Bft) NW 316 0 min 0,000 mm 0,0 UV-I 0 W/m 0,4 C 3,5 C 0,0 km/h (0 Bft)
20.03.2016 04:40 3,5 C 80 % 1019,4 hPa 0,0 l/m 0,0 km/h (0 Bft) W-NW 295 0 min 0,000 mm 0,0 UV-I 0 W/m 0,4 C 3,5 C 0,0 km/h (0 Bft)
20.03.2016 04:45 3,4 C 80 % 1019,4 hPa 0,0 l/m 0,4 km/h (0 Bft) N 355 0 min 0,000 mm 0,0 UV-I 0 W/m 0,3 C 3,4 C 4,8 km/h (1 Bft)
20.03.2016 04:50 3,4 C 80 % 1019,4 hPa 0,0 l/m 0,4 km/h (0 Bft) NW 310 0 min 0,000 mm 0,0 UV-I 0 W/m 0,3 C 3,4 C 8,0 km/h (2 Bft)
20.03.2016 04:55 3,4 C 80 % 1019,4 hPa 0,0 l/m 0,3 km/h (0 Bft) NW 309 0 min 0,000 mm 0,0 UV-I 0 W/m 0,3 C 3,4 C 6,4 km/h (2 Bft)
20.03.2016 05:00 3,4 C 80 % 1019,5 hPa 0,0 l/m 0,4 km/h (0 Bft) W-NW 295 0 min 0,000 mm 0,0 UV-I 0 W/m 0,3 C 3,4 C 4,8 km/h (1 Bft)
20.03.2016 05:05 3,4 C 80 % 1019,5 hPa 0,0 l/m 0,1 km/h (0 Bft) NW 321 0 min 0,000 mm 0,0 UV-I 0 W/m 0,3 C 3,4 C 1,6 km/h (1 Bft)
20.03.2016 05:10 3,4 C 80 % 1019,5 hPa 0,0 l/m 0,0 km/h (0 Bft) NW 321 0 min 0,000 mm 0,0 UV-I 0 W/m 0,3 C 3,4 C 0,0 km/h (0 Bft)
20.03.2016 05:15 3,4 C 80 % 1019,5 hPa 0,0 l/m 0,0 km/h (0 Bft) NW 321 0 min 0,000 mm 0,0 UV-I 0 W/m 0,3 C 3,4 C 0,0 km/h (0 Bft)
20.03.2016 05:20 3,4 C 80 % 1019,5 hPa 0,0 l/m 0,0 km/h (0 Bft) W-NW 298 0 min 0,000 mm 0,0 UV-I 0 W/m 0,3 C 3,4 C 0,0 km/h (0 Bft)
20.03.2016 05:25 3,4 C 80 % 1019,5 hPa 0,0 l/m 0,2 km/h (0 Bft) W-NW 302 0 min 0,000 mm 0,0 UV-I 0 W/m 0,3 C 3,4 C 3,2 km/h (1 Bft)
20.03.2016 05:30 3,4 C 81 % 1019,5 hPa 0,0 l/m 0,0 km/h (0 Bft) W-NW 302 0 min 0,000 mm 0,0 UV-I 0 W/m 0,5 C 3,4 C 0,0 km/h (0 Bft)
20.03.2016 05:35 3,4 C 81 % 1019,5 hPa 0,0 l/m 0,0 km/h (0 Bft) W-NW 302 0 min 0,000 mm 0,0 UV-I 0 W/m 0,5 C 3,4 C 0,0 km/h (0 Bft)
20.03.2016 05:40 3,4 C 81 % 1019,4 hPa 0,0 l/m 0,0 km/h (0 Bft) W-NW 302 0 min 0,000 mm 0,0 UV-I 0 W/m 0,5 C 3,4 C 0,0 km/h (0 Bft)
20.03.2016 05:45 3,4 C 81 % 1019,4 hPa 0,0 l/m 0,0 km/h (0 Bft) W-NW 302 0 min 0,000 mm 0,0 UV-I 0 W/m 0,5 C 3,4 C 0,0 km/h (0 Bft)
20.03.2016 05:50 3,4 C 81 % 1019,4 hPa 0,0 l/m 0,0 km/h (0 Bft) W-NW 302 0 min 0,000 mm 0,0 UV-I 0 W/m 0,5 C 3,4 C 0,0 km/h (0 Bft)
20.03.2016 05:55 3,4 C 81 % 1019,4 hPa 0,0 l/m 0,0 km/h (0 Bft) W-NW 302 0 min 0,000 mm 0,0 UV-I 0 W/m 0,5 C 3,4 C 0,0 km/h (0 Bft)
20.03.2016 06:00 3,4 C 81 % 1019,5 hPa 0,0 l/m 0,0 km/h (0 Bft) W-NW 302 0 min 0,000 mm 0,0 UV-I 0 W/m 0,5 C 3,4 C 0,0 km/h (0 Bft)
20.03.2016 06:05 3,3 C 81 % 1019,5 hPa 0,0 l/m 0,0 km/h (0 Bft) NW 313 0 min 0,000 mm 0,0 UV-I 0 W/m 0,4 C 3,3 C 1,6 km/h (1 Bft)
20.03.2016 06:10 3,3 C 81 % 1019,6 hPa 0,0 l/m 0,2 km/h (0 Bft) NW 305 0 min 0,000 mm 0,0 UV-I 0 W/m 0,4 C 3,3 C 4,8 km/h (1 Bft)
20.03.2016 06:15 3,3 C 82 % 1019,6 hPa 0,0 l/m 0,2 km/h (0 Bft) W-NW 295 0 min 0,000 mm 0,0 UV-I 0 W/m 0,5 C 3,3 C 4,8 km/h (1 Bft)
20.03.2016 06:20 3,3 C 82 % 1019,7 hPa 0,0 l/m 0,8 km/h (0 Bft) NW 309 0 min 0,000 mm 0,0 UV-I 0 W/m 0,5 C 3,3 C 9,7 km/h (2 Bft)
20.03.2016 06:25 3,3 C 82 % 1019,7 hPa 0,0 l/m 0,7 km/h (0 Bft) NW 313 0 min 0,000 mm 0,0 UV-I 0 W/m 0,5 C 3,3 C 8,0 km/h (2 Bft)
20.03.2016 06:30 3,3 C 82 % 1019,7 hPa 0,0 l/m 0,5 km/h (0 Bft) W-NW 295 0 min 0,000 mm 0,0 UV-I 0 W/m 0,5 C 3,3 C 4,8 km/h (1 Bft)
20.03.2016 06:35 3,3 C 83 % 1019,8 hPa 0,0 l/m 0,3 km/h (0 Bft) NW 315 0 min 0,000 mm 0,0 UV-I 0 W/m 0,7 C 3,3 C 6,4 km/h (2 Bft)
20.03.2016 06:40 3,3 C 83 % 1019,7 hPa 0,0 l/m 0,6 km/h (0 Bft) W-NW 290 0 min 0,000 mm 0,0 UV-I 0 W/m 0,7 C 3,3 C 8,0 km/h (2 Bft)
20.03.2016 06:45 3,2 C 83 % 1019,8 hPa 0,0 l/m 0,0 km/h (0 Bft) NW 320 0 min 0,000 mm 0,0 UV-I 0 W/m 0,6 C 3,2 C 0,0 km/h (0 Bft)
20.03.2016 06:50 3,2 C 84 % 1019,8 hPa 0,0 l/m 0,4 km/h (0 Bft) NW 309 0 min 0,000 mm 0,0 UV-I 0 W/m 0,8 C 3,2 C 6,4 km/h (2 Bft)
20.03.2016 06:55 3,2 C 83 % 1019,9 hPa 0,0 l/m 0,0 km/h (0 Bft) NW 309 0 min 0,000 mm 0,0 UV-I 0 W/m 0,6 C 3,2 C 0,0 km/h (0 Bft)
20.03.2016 07:00 3,2 C 84 % 1019,9 hPa 0,0 l/m 0,0 km/h (0 Bft) W-NW 293 0 min 0,000 mm 0,0 UV-I 4 W/m 0,8 C 3,2 C 1,6 km/h (1 Bft)
20.03.2016 07:05 3,2 C 84 % 1019,9 hPa 0,0 l/m 0,1 km/h (0 Bft) W-NW 297 0 min 0,000 mm 0,0 UV-I 5 W/m 0,8 C 3,2 C 3,2 km/h (1 Bft)
20.03.2016 07:10 3,2 C 84 % 1019,9 hPa 0,0 l/m 0,6 km/h (0 Bft) N-NW 330 0 min 0,000 mm 0,0 UV-I 6 W/m 0,8 C 3,2 C 6,4 km/h (2 Bft)
20.03.2016 07:15 3,2 C 84 % 1019,9 hPa 0,0 l/m 0,6 km/h (0 Bft) NW 310 0 min 0,000 mm 0,0 UV-I 7 W/m 0,8 C 3,2 C 4,8 km/h (1 Bft)
20.03.2016 07:20 3,2 C 84 % 1020,0 hPa 0,0 l/m 0,3 km/h (0 Bft) N-NW 331 0 min 0,000 mm 0,0 UV-I 8 W/m 0,8 C 3,2 C 3,2 km/h (1 Bft)
20.03.2016 07:25 3,2 C 84 % 1020,0 hPa 0,0 l/m 0,0 km/h (0 Bft) N-NW 345 0 min 0,000 mm 0,0 UV-I 9 W/m 0,8 C 3,2 C 1,6 km/h (1 Bft)
20.03.2016 07:30 3,2 C 85 % 1019,9 hPa 0,0 l/m 0,0 km/h (0 Bft) N-NW 345 0 min 0,000 mm 0,0 UV-I 11 W/m 0,9 C 3,2 C 0,0 km/h (0 Bft)
20.03.2016 07:35 3,2 C 85 % 1019,9 hPa 0,0 l/m 0,0 km/h (0 Bft) N-NW 345 0 min 0,000 mm 0,0 UV-I 14 W/m 0,9 C 3,2 C 0,0 km/h (0 Bft)
20.03.2016 07:40 3,3 C 85 % 1020,0 hPa 0,0 l/m 0,0 km/h (0 Bft) N-NW 344 0 min 0,000 mm 0,0 UV-I 15 W/m 1,0 C 3,3 C 0,0 km/h (0 Bft)
20.03.2016 07:45 3,3 C 84 % 1020,0 hPa 0,0 l/m 0,4 km/h (0 Bft) W-NW 294 0 min 0,000 mm 0,0 UV-I 17 W/m 0,9 C 3,3 C 6,4 km/h (2 Bft)
20.03.2016 07:50 3,3 C 84 % 1020,0 hPa 0,0 l/m 0,0 km/h (0 Bft) NW 310 0 min 0,000 mm 0,0 UV-I 20 W/m 0,9 C 3,3 C 0,0 km/h (0 Bft)
20.03.2016 07:55 3,3 C 84 % 1020,0 hPa 0,0 l/m 0,0 km/h (0 Bft) O-NO 63 0 min 0,000 mm 0,0 UV-I 21 W/m 0,9 C 3,3 C 1,6 km/h (1 Bft)
20.03.2016 08:00 3,3 C 84 % 1020,0 hPa 0,0 l/m 0,0 km/h (0 Bft) N 360 0 min 0,000 mm 0,0 UV-I 25 W/m 0,9 C 3,3 C 1,6 km/h (1 Bft)
20.03.2016 08:05 3,4 C 84 % 1020,0 hPa 0,0 l/m 0,0 km/h (0 Bft) NW 317 0 min 0,000 mm 0,0 UV-I 27 W/m 1,0 C 3,4 C 0,0 km/h (0 Bft)
20.03.2016 08:10 3,4 C 84 % 1020,0 hPa 0,0 l/m 0,0 km/h (0 Bft) NW 323 0 min 0,000 mm 0,0 UV-I 29 W/m 1,0 C 3,4 C 0,0 km/h (0 Bft)
20.03.2016 08:15 3,4 C 84 % 1019,9 hPa 0,0 l/m 0,0 km/h (0 Bft) W-SW 247 0 min 0,000 mm 0,0 UV-I 41 W/m 1,0 C 3,4 C 0,0 km/h (0 Bft)
20.03.2016 08:20 3,5 C 84 % 1020,0 hPa 0,0 l/m 0,0 km/h (0 Bft) W-SW 247 0 min 0,000 mm 0,0 UV-I 46 W/m 1,1 C 3,5 C 0,0 km/h (0 Bft)
20.03.2016 08:25 3,5 C 84 % 1019,9 hPa 0,0 l/m 0,0 km/h (0 Bft) W-SW 247 0 min 0,000 mm 0,0 UV-I 47 W/m 1,1 C 3,5 C 0,0 km/h (0 Bft)
20.03.2016 08:30 3,5 C 84 % 1019,9 hPa 0,0 l/m 0,0 km/h (0 Bft) W-SW 247 0 min 0,000 mm 0,0 UV-I 48 W/m 1,1 C 3,5 C 0,0 km/h (0 Bft)
20.03.2016 08:35 3,6 C 84 % 1019,9 hPa 0,0 l/m 0,0 km/h (0 Bft) W 280 0 min 0,000 mm 0,0 UV-I 53 W/m 1,2 C 3,6 C 0,0 km/h (0 Bft)
20.03.2016 08:40 3,7 C 83 % 1019,9 hPa 0,0 l/m 0,1 km/h (0 Bft) S 178 0 min 0,000 mm 0,0 UV-I 64 W/m 1,1 C 3,7 C 3,2 km/h (1 Bft)
20.03.2016 08:45 3,7 C 83 % 1020,0 hPa 0,0 l/m 0,0 km/h (0 Bft) S 178 0 min 0,000 mm 0,0 UV-I 75 W/m 1,1 C 3,7 C 0,0 km/h (0 Bft)
20.03.2016 08:50 3,8 C 83 % 1020,0 hPa 0,0 l/m 0,0 km/h (0 Bft) NW 311 0 min 0,000 mm 0,0 UV-I 68 W/m 1,2 C 3,8 C 0,0 km/h (0 Bft)
20.03.2016 08:55 3,9 C 82 % 1020,0 hPa 0,0 l/m 0,6 km/h (0 Bft) SW 234 0 min 0,000 mm 0,0 UV-I 67 W/m 1,1 C 3,9 C 6,4 km/h (2 Bft)
20.03.2016 09:00 3,9 C 82 % 1019,9 hPa 0,0 l/m 0,8 km/h (0 Bft) W-NW 300 0 min 0,000 mm 0,0 UV-I 66 W/m 1,1 C 3,9 C 6,4 km/h (2 Bft)
20.03.2016 09:05 4,0 C 82 % 1020,0 hPa 0,0 l/m 0,5 km/h (0 Bft) W 271 0 min 0,025 mm 0,0 UV-I 67 W/m 1,2 C 4,0 C 6,4 km/h (2 Bft)
20.03.2016 09:10 4,1 C 82 % 1020,0 hPa 0,0 l/m 0,0 km/h (0 Bft) SW 223 0 min 0,000 mm 0,0 UV-I 69 W/m 1,3 C 4,1 C 1,6 km/h (1 Bft)
20.03.2016 09:15 4,1 C 82 % 1020,0 hPa 0,0 l/m 0,0 km/h (0 Bft) W-SW 254 0 min 0,000 mm 0,0 UV-I 70 W/m 1,3 C 4,1 C 0,0 km/h (0 Bft)
20.03.2016 09:20 4,2 C 82 % 1020,1 hPa 0,0 l/m 0,3 km/h (0 Bft) W-NW 302 0 min 0,000 mm 0,0 UV-I 66 W/m 1,4 C 4,2 C 4,8 km/h (1 Bft)
20.03.2016 09:25 4,3 C 81 % 1020,1 hPa 0,0 l/m 0,5 km/h (0 Bft) W 277 0 min 0,000 mm 0,1 UV-I 70 W/m 1,3 C 4,3 C 11,3 km/h (2 Bft)
20.03.2016 09:30 4,2 C 81 % 1020,1 hPa 0,0 l/m 3,7 km/h (1 Bft) NW 313 0 min 0,000 mm 0,5 UV-I 71 W/m 1,2 C 4,2 C 12,9 km/h (3 Bft)
20.03.2016 09:35 4,2 C 81 % 1020,1 hPa 0,0 l/m 3,7 km/h (1 Bft) W-NW 302 0 min 0,000 mm 0,5 UV-I 75 W/m 1,2 C 4,2 C 9,7 km/h (2 Bft)
20.03.2016 09:40 4,3 C 81 % 1020,1 hPa 0,0 l/m 2,0 km/h (1 Bft) W 271 0 min 0,000 mm 0,5 UV-I 80 W/m 1,3 C 4,3 C 11,3 km/h (2 Bft)
20.03.2016 09:45 4,3 C 80 % 1020,2 hPa 0,0 l/m 3,0 km/h (1 Bft) W-SW 244 0 min 0,000 mm 0,5 UV-I 83 W/m 1,2 C 4,3 C 9,7 km/h (2 Bft)
20.03.2016 09:50 4,4 C 80 % 1020,1 hPa 0,0 l/m 2,9 km/h (1 Bft) W-NW 287 0 min 0,000 mm 0,6 UV-I 97 W/m 1,3 C 4,4 C 16,1 km/h (3 Bft)
20.03.2016 09:55 4,4 C 80 % 1020,1 hPa 0,0 l/m 4,8 km/h (1 Bft) W-NW 297 0 min 0,000 mm 0,6 UV-I 103 W/m 1,3 C 4,4 C 17,7 km/h (3 Bft)
20.03.2016 10:00 4,5 C 80 % 1020,1 hPa 0,0 l/m 1,0 km/h (0 Bft) NW 309 0 min 0,000 mm 0,6 UV-I 106 W/m 1,4 C 4,5 C 8,0 km/h (2 Bft)
20.03.2016 10:05 4,6 C 80 % 1020,1 hPa 0,0 l/m 1,3 km/h (1 Bft) NW 312 0 min 0,026 mm 0,7 UV-I 114 W/m 1,5 C 4,6 C 8,0 km/h (2 Bft)
20.03.2016 10:10 4,7 C 80 % 1020,0 hPa 0,0 l/m 0,8 km/h (0 Bft) W-NW 284 0 min 0,000 mm 0,7 UV-I 131 W/m 1,6 C 4,7 C 6,4 km/h (2 Bft)
20.03.2016 10:15 4,9 C 79 % 1020,0 hPa 0,0 l/m 0,3 km/h (0 Bft) W-NW 282 0 min 0,000 mm 0,8 UV-I 154 W/m 1,6 C 4,9 C 3,2 km/h (1 Bft)
20.03.2016 10:20 5,0 C 78 % 1020,0 hPa 0,0 l/m 1,1 km/h (1 Bft) NW 315 0 min 0,000 mm 0,8 UV-I 154 W/m 1,5 C 5,0 C 6,4 km/h (2 Bft)
20.03.2016 10:25 5,2 C 77 % 1019,9 hPa 0,0 l/m 1,6 km/h (1 Bft) NW 304 0 min 0,000 mm 0,8 UV-I 146 W/m 1,5 C 5,2 C 6,4 km/h (2 Bft)
20.03.2016 10:30 5,1 C 76 % 1019,8 hPa 0,0 l/m 4,4 km/h (1 Bft) NW 311 0 min 0,000 mm 0,9 UV-I 154 W/m 1,2 C 5,1 C 14,5 km/h (3 Bft)
20.03.2016 10:35 5,1 C 77 % 1019,8 hPa 0,0 l/m 1,0 km/h (0 Bft) NW 304 0 min 0,000 mm 0,9 UV-I 168 W/m 1,4 C 5,1 C 3,2 km/h (1 Bft)
20.03.2016 10:40 5,2 C 77 % 1019,9 hPa 0,0 l/m 0,3 km/h (0 Bft) NW 304 0 min 0,000 mm 1,0 UV-I 172 W/m 1,5 C 5,2 C 1,6 km/h (1 Bft)
20.03.2016 10:45 5,5 C 76 % 1019,8 hPa 0,0 l/m 0,2 km/h (0 Bft) NW 315 0 min 0,000 mm 1,0 UV-I 169 W/m 1,6 C 5,5 C 3,2 km/h (1 Bft)
20.03.2016 10:50 5,6 C 75 % 1019,8 hPa 0,0 l/m 0,3 km/h (0 Bft) W 264 0 min 0,000 mm 0,9 UV-I 165 W/m 1,5 C 5,6 C 3,2 km/h (1 Bft)
20.03.2016 10:55 5,7 C 75 % 1019,9 hPa 0,0 l/m 0,9 km/h (0 Bft) NW 321 0 min 0,000 mm 1,0 UV-I 168 W/m 1,6 C 5,7 C 4,8 km/h (1 Bft)
20.03.2016 11:00 5,8 C 74 % 1019,8 hPa 0,0 l/m 2,8 km/h (1 Bft) W-NW 285 0 min 0,000 mm 1,0 UV-I 168 W/m 1,5 C 5,8 C 8,0 km/h (2 Bft)
20.03.2016 11:05 5,7 C 74 % 1019,8 hPa 0,0 l/m 3,6 km/h (1 Bft) N-NW 331 0 min 0,076 mm 1,1 UV-I 171 W/m 1,4 C 5,7 C 8,0 km/h (2 Bft)
20.03.2016 11:10 5,8 C 74 % 1019,7 hPa 0,0 l/m 2,6 km/h (1 Bft) NW 304 0 min 0,000 mm 1,1 UV-I 174 W/m 1,5 C 5,8 C 11,3 km/h (2 Bft)
20.03.2016 11:15 5,9 C 74 % 1019,7 hPa 0,0 l/m 3,1 km/h (1 Bft) W-NW 283 0 min 0,000 mm 1,1 UV-I 183 W/m 1,6 C 5,9 C 16,1 km/h (3 Bft)
20.03.2016 11:20 5,9 C 73 % 1019,6 hPa 0,0 l/m 2,8 km/h (1 Bft) W-NW 291 0 min 0,000 mm 1,4 UV-I 257 W/m 1,4 C 5,9 C 16,1 km/h (3 Bft)
20.03.2016 11:25 5,9 C 73 % 1019,6 hPa 0,0 l/m 1,2 km/h (1 Bft) W-NW 296 0 min 0,000 mm 1,3 UV-I 234 W/m 1,4 C 5,9 C 6,4 km/h (2 Bft)
20.03.2016 11:30 6,1 C 73 % 1019,6 hPa 0,0 l/m 2,0 km/h (1 Bft) NW 310 0 min 0,000 mm 1,1 UV-I 186 W/m 1,6 C 6,1 C 12,9 km/h (3 Bft)
20.03.2016 11:35 6,1 C 72 % 1019,6 hPa 0,0 l/m 3,3 km/h (1 Bft) W-SW 252 0 min 0,000 mm 1,0 UV-I 172 W/m 1,4 C 6,1 C 11,3 km/h (2 Bft)
20.03.2016 11:40 5,8 C 73 % 1019,6 hPa 0,0 l/m 4,1 km/h (1 Bft) W-NW 290 0 min 0,000 mm 1,0 UV-I 171 W/m 1,3 C 5,8 C 9,7 km/h (2 Bft)
20.03.2016 11:45 5,8 C 74 % 1019,6 hPa 0,0 l/m 2,5 km/h (1 Bft) W-NW 299 0 min 0,000 mm 1,1 UV-I 171 W/m 1,5 C 5,8 C 6,4 km/h (2 Bft)
20.03.2016 11:50 5,8 C 74 % 1019,6 hPa 0,0 l/m 4,1 km/h (1 Bft) NW 304 0 min 0,000 mm 1,0 UV-I 162 W/m 1,5 C 5,8 C 12,9 km/h (3 Bft)
20.03.2016 11:55 5,8 C 74 % 1019,6 hPa 0,0 l/m 1,7 km/h (1 Bft) W 266 0 min 0,000 mm 1,1 UV-I 170 W/m 1,5 C 5,8 C 8,0 km/h (2 Bft)
20.03.2016 12:00 5,8 C 74 % 1019,6 hPa 0,0 l/m 3,7 km/h (1 Bft) NW 309 0 min 0,000 mm 1,1 UV-I 180 W/m 1,5 C 5,8 C 9,7 km/h (2 Bft)
20.03.2016 12:05 5,9 C 74 % 1019,6 hPa 0,0 l/m 1,4 km/h (1 Bft) W-NW 301 0 min 0,076 mm 1,0 UV-I 154 W/m 1,6 C 5,9 C 6,4 km/h (2 Bft)
20.03.2016 12:10 5,8 C 74 % 1019,6 hPa 0,0 l/m 2,9 km/h (1 Bft) W-NW 286 0 min 0,000 mm 0,9 UV-I 141 W/m 1,5 C 5,8 C 8,0 km/h (2 Bft)
20.03.2016 12:15 5,8 C 74 % 1019,5 hPa 0,0 l/m 0,5 km/h (0 Bft) W-NW 291 0 min 0,000 mm 1,0 UV-I 150 W/m 1,5 C 5,8 C 4,8 km/h (1 Bft)
20.03.2016 12:20 5,9 C 72 % 1019,6 hPa 0,0 l/m 3,7 km/h (1 Bft) NW 305 0 min 0,000 mm 0,9 UV-I 142 W/m 1,2 C 5,9 C 12,9 km/h (3 Bft)
20.03.2016 12:25 6,1 C 73 % 1019,4 hPa 0,0 l/m 1,4 km/h (1 Bft) NW 317 0 min 0,000 mm 0,9 UV-I 138 W/m 1,6 C 6,1 C 4,8 km/h (1 Bft)
20.03.2016 12:30 6,1 C 71 % 1019,5 hPa 0,0 l/m 3,6 km/h (1 Bft) NW 319 0 min 0,000 mm 1,1 UV-I 166 W/m 1,2 C 6,1 C 9,7 km/h (2 Bft)
20.03.2016 12:35 6,2 C 70 % 1019,5 hPa 0,0 l/m 1,4 km/h (1 Bft) N-NW 340 0 min 0,000 mm 1,3 UV-I 196 W/m 1,1 C 6,2 C 6,4 km/h (2 Bft)
20.03.2016 12:40 6,3 C 69 % 1019,4 hPa 0,0 l/m 1,3 km/h (1 Bft) N 350 0 min 0,000 mm 1,1 UV-I 167 W/m 1,0 C 6,3 C 9,7 km/h (2 Bft)
20.03.2016 12:45 6,4 C 69 % 1019,4 hPa 0,0 l/m 1,8 km/h (1 Bft) N-NO 32 0 min 0,000 mm 1,0 UV-I 147 W/m 1,1 C 6,4 C 6,4 km/h (2 Bft)
20.03.2016 12:50 6,6 C 69 % 1019,5 hPa 0,0 l/m 0,4 km/h (0 Bft) N 360 0 min 0,000 mm 1,0 UV-I 151 W/m 1,3 C 6,6 C 6,4 km/h (2 Bft)
20.03.2016 12:55 6,7 C 68 % 1019,3 hPa 0,0 l/m 1,3 km/h (1 Bft) W-NW 284 0 min 0,000 mm 1,0 UV-I 145 W/m 1,2 C 6,7 C 8,0 km/h (2 Bft)
20.03.2016 13:00 6,6 C 69 % 1019,2 hPa 0,0 l/m 1,3 km/h (1 Bft) N 5 0 min 0,000 mm 0,9 UV-I 133 W/m 1,3 C 6,6 C 8,0 km/h (2 Bft)
20.03.2016 13:05 6,7 C 70 % 1019,3 hPa 0,0 l/m 1,6 km/h (1 Bft) NW 309 0 min 0,076 mm 0,8 UV-I 115 W/m 1,6 C 6,7 C 6,4 km/h (2 Bft)
20.03.2016 13:10 6,6 C 69 % 1019,2 hPa 0,0 l/m 1,7 km/h (1 Bft) NW 321 0 min 0,000 mm 0,8 UV-I 109 W/m 1,3 C 6,6 C 11,3 km/h (2 Bft)
20.03.2016 13:15 6,5 C 69 % 1019,2 hPa 0,0 l/m 0,6 km/h (0 Bft) W 280 0 min 0,000 mm 0,9 UV-I 130 W/m 1,2 C 6,5 C 3,2 km/h (1 Bft)
20.03.2016 13:20 6,4 C 70 % 1019,1 hPa 0,0 l/m 0,0 km/h (0 Bft) NW 319 0 min 0,000 mm 0,9 UV-I 138 W/m 1,3 C 6,4 C 1,6 km/h (1 Bft)
20.03.2016 13:25 6,6 C 69 % 1019,1 hPa 0,0 l/m 0,6 km/h (0 Bft) N 5 0 min 0,000 mm 0,9 UV-I 135 W/m 1,3 C 6,6 C 4,8 km/h (1 Bft)
20.03.2016 13:30 6,6 C 69 % 1019,0 hPa 0,0 l/m 1,4 km/h (1 Bft) NW 311 0 min 0,000 mm 0,8 UV-I 129 W/m 1,3 C 6,6 C 8,0 km/h (2 Bft)
20.03.2016 13:35 6,6 C 69 % 1019,0 hPa 0,0 l/m 0,5 km/h (0 Bft) W-NW 302 0 min 0,000 mm 0,8 UV-I 122 W/m 1,3 C 6,6 C 4,8 km/h (1 Bft)
20.03.2016 13:40 6,7 C 68 % 1019,0 hPa 0,0 l/m 0,0 km/h (0 Bft) NW 308 0 min 0,000 mm 0,8 UV-I 119 W/m 1,2 C 6,7 C 0,0 km/h (0 Bft)
20.03.2016 13:45 6,7 C 69 % 1018,9 hPa 0,0 l/m 0,0 km/h (0 Bft) NW 313 0 min 0,000 mm 0,8 UV-I 121 W/m 1,4 C 6,7 C 0,0 km/h (0 Bft)
20.03.2016 13:50 6,7 C 68 % 1018,9 hPa 0,0 l/m 0,6 km/h (0 Bft) NW 326 0 min 0,000 mm 0,9 UV-I 136 W/m 1,2 C 6,7 C 6,4 km/h (2 Bft)
20.03.2016 13:55 6,6 C 68 % 1018,9 hPa 0,0 l/m 0,7 km/h (0 Bft) N-NO 19 0 min 0,000 mm 1,0 UV-I 162 W/m 1,1 C 6,6 C 9,7 km/h (2 Bft)
20.03.2016 14:00 6,7 C 68 % 1018,8 hPa 0,0 l/m 0,2 km/h (0 Bft) W-NW 297 0 min 0,000 mm 1,2 UV-I 191 W/m 1,2 C 6,7 C 3,2 km/h (1 Bft)
20.03.2016 14:05 6,8 C 68 % 1018,7 hPa 0,0 l/m 0,2 km/h (0 Bft) W-NW 296 0 min 0,051 mm 1,3 UV-I 221 W/m 1,3 C 6,8 C 3,2 km/h (1 Bft)
20.03.2016 14:10 6,8 C 66 % 1018,6 hPa 0,0 l/m 2,5 km/h (1 Bft) NW 306 0 min 0,000 mm 1,1 UV-I 191 W/m 0,9 C 6,8 C 9,7 km/h (2 Bft)
20.03.2016 14:15 6,7 C 67 % 1018,6 hPa 0,0 l/m 1,8 km/h (1 Bft) W 269 0 min 0,000 mm 1,0 UV-I 180 W/m 1,0 C 6,7 C 9,7 km/h (2 Bft)
20.03.2016 14:20 6,7 C 68 % 1018,5 hPa 0,0 l/m 0,1 km/h (0 Bft) S-SW 206 0 min 0,000 mm 1,0 UV-I 184 W/m 1,2 C 6,7 C 3,2 km/h (1 Bft)
20.03.2016 14:25 6,8 C 67 % 1018,5 hPa 0,0 l/m 0,1 km/h (0 Bft) W 274 0 min 0,000 mm 1,1 UV-I 201 W/m 1,1 C 6,8 C 3,2 km/h (1 Bft)
20.03.2016 14:30 6,8 C 66 % 1018,6 hPa 0,0 l/m 1,3 km/h (1 Bft) W-SW 241 0 min 0,000 mm 1,3 UV-I 251 W/m 0,9 C 6,8 C 9,7 km/h (2 Bft)
20.03.2016 14:35 6,9 C 68 % 1018,6 hPa 0,0 l/m 0,3 km/h (0 Bft) W-SW 252 0 min 0,000 mm 1,2 UV-I 250 W/m 1,4 C 6,9 C 3,2 km/h (1 Bft)
20.03.2016 14:40 7,1 C 66 % 1018,5 hPa 0,0 l/m 0,2 km/h (0 Bft) NW 312 0 min 0,000 mm 1,2 UV-I 238 W/m 1,2 C 7,1 C 4,8 km/h (1 Bft)
20.03.2016 14:45 7,1 C 66 % 1018,6 hPa 0,0 l/m 1,2 km/h (1 Bft) W 261 0 min 0,000 mm 1,2 UV-I 227 W/m 1,2 C 7,1 C 4,8 km/h (1 Bft)
20.03.2016 14:50 6,8 C 66 % 1018,5 hPa 0,0 l/m 3,0 km/h (1 Bft) W-NW 294 0 min 0,000 mm 1,1 UV-I 211 W/m 0,9 C 6,8 C 6,4 km/h (2 Bft)
20.03.2016 14:55 6,8 C 67 % 1018,5 hPa 0,0 l/m 1,1 km/h (1 Bft) W-NW 302 0 min 0,000 mm 1,1 UV-I 203 W/m 1,1 C 6,8 C 8,0 km/h (2 Bft)
20.03.2016 15:00 6,9 C 64 % 1018,6 hPa 0,0 l/m 0,8 km/h (0 Bft) W 277 0 min 0,000 mm 0,9 UV-I 183 W/m 0,6 C 6,9 C 8,0 km/h (2 Bft)
20.03.2016 15:05 7,0 C 65 % 1018,5 hPa 0,0 l/m 0,5 km/h (0 Bft) NW 312 0 min 0,102 mm 0,8 UV-I 160 W/m 0,9 C 7,0 C 6,4 km/h (2 Bft)
20.03.2016 15:10 7,2 C 65 % 1018,4 hPa 0,0 l/m 0,4 km/h (0 Bft) SW 219 0 min 0,000 mm 0,7 UV-I 144 W/m 1,1 C 7,2 C 3,2 km/h (1 Bft)
20.03.2016 15:15 7,1 C 66 % 1018,4 hPa 0,0 l/m 2,0 km/h (1 Bft) W-SW 248 0 min 0,000 mm 0,7 UV-I 131 W/m 1,2 C 7,1 C 8,0 km/h (2 Bft)
20.03.2016 15:20 7,0 C 67 % 1018,4 hPa 0,0 l/m 0,7 km/h (0 Bft) W-NW 290 0 min 0,000 mm 0,6 UV-I 118 W/m 1,3 C 7,0 C 9,7 km/h (2 Bft)
20.03.2016 15:25 7,1 C 66 % 1018,4 hPa 0,0 l/m 0,2 km/h (0 Bft) SO 144 0 min 0,000 mm 0,6 UV-I 110 W/m 1,2 C 7,1 C 3,2 km/h (1 Bft)
20.03.2016 15:30 6,9 C 67 % 1018,4 hPa 0,0 l/m 0,5 km/h (0 Bft) N-NO 28 0 min 0,000 mm 0,6 UV-I 102 W/m 1,2 C 6,9 C 6,4 km/h (2 Bft)
20.03.2016 15:35 7,1 C 66 % 1018,4 hPa 0,0 l/m 0,2 km/h (0 Bft) W-SW 239 0 min 0,000 mm 0,5 UV-I 96 W/m 1,2 C 7,1 C 4,8 km/h (1 Bft)
20.03.2016 15:40 6,9 C 67 % 1018,4 hPa 0,0 l/m 2,2 km/h (1 Bft) W 265 0 min 0,000 mm 0,5 UV-I 91 W/m 1,2 C 6,9 C 8,0 km/h (2 Bft)
20.03.2016 15:45 6,9 C 67 % 1018,3 hPa 0,0 l/m 0,1 km/h (0 Bft) SW 232 0 min 0,000 mm 0,5 UV-I 92 W/m 1,2 C 6,9 C 3,2 km/h (1 Bft)
20.03.2016 15:50 7,0 C 67 % 1018,2 hPa 0,0 l/m 0,9 km/h (0 Bft) W 274 0 min 0,000 mm 0,4 UV-I 84 W/m 1,3 C 7,0 C 6,4 km/h (2 Bft)
20.03.2016 15:55 6,9 C 66 % 1018,2 hPa 0,0 l/m 2,8 km/h (1 Bft) W-SW 258 0 min 0,000 mm 0,0 UV-I 77 W/m 1,0 C 6,9 C 8,0 km/h (2 Bft)
20.03.2016 16:00 6,9 C 67 % 1018,2 hPa 0,0 l/m 0,1 km/h (0 Bft) W-NW 294 0 min 0,000 mm 0,0 UV-I 75 W/m 1,2 C 6,9 C 3,2 km/h (1 Bft)
20.03.2016 16:05 6,9 C 67 % 1018,1 hPa 0,0 l/m 0,3 km/h (0 Bft) W-NW 290 0 min 0,051 mm 0,0 UV-I 70 W/m 1,2 C 6,9 C 4,8 km/h (1 Bft)
20.03.2016 16:10 7,0 C 67 % 1018,1 hPa 0,0 l/m 0,1 km/h (0 Bft) S-SW 211 0 min 0,000 mm 0,0 UV-I 63 W/m 1,3 C 7,0 C 3,2 km/h (1 Bft)
20.03.2016 16:15 7,1 C 67 % 1018,0 hPa 0,0 l/m 0,0 km/h (0 Bft) N-NO 31 0 min 0,000 mm 0,0 UV-I 56 W/m 1,4 C 7,1 C 0,0 km/h (0 Bft)
20.03.2016 16:20 7,2 C 67 % 1018,0 hPa 0,0 l/m 0,0 km/h (0 Bft) N-NO 32 0 min 0,000 mm 0,0 UV-I 67 W/m 1,5 C 7,2 C 0,0 km/h (0 Bft)
20.03.2016 16:25 7,3 C 67 % 1017,9 hPa 0,0 l/m 0,4 km/h (0 Bft) NW 309 0 min 0,000 mm 0,0 UV-I 75 W/m 1,6 C 7,3 C 6,4 km/h (2 Bft)
20.03.2016 16:30 7,4 C 67 % 1017,8 hPa 0,0 l/m 1,0 km/h (0 Bft) W 280 0 min 0,000 mm 0,0 UV-I 57 W/m 1,7 C 7,4 C 6,4 km/h (2 Bft)
20.03.2016 16:35 7,4 C 66 % 1017,8 hPa 0,0 l/m 0,5 km/h (0 Bft) W-NW 294 0 min 0,000 mm 0,0 UV-I 47 W/m 1,5 C 7,4 C 4,8 km/h (1 Bft)
20.03.2016 16:40 7,3 C 66 % 1017,7 hPa 0,0 l/m 0,0 km/h (0 Bft) S 186 0 min 0,000 mm 0,0 UV-I 52 W/m 1,4 C 7,3 C 0,0 km/h (0 Bft)
20.03.2016 16:45 7,3 C 66 % 1017,8 hPa 0,0 l/m 0,0 km/h (0 Bft) S 186 0 min 0,000 mm 0,0 UV-I 48 W/m 1,4 C 7,3 C 0,0 km/h (0 Bft)
20.03.2016 16:50 7,3 C 67 % 1017,8 hPa 0,0 l/m 0,0 km/h (0 Bft) S 186 0 min 0,000 mm 0,0 UV-I 39 W/m 1,6 C 7,3 C 0,0 km/h (0 Bft)
20.03.2016 16:55 7,3 C 66 % 1017,8 hPa 0,0 l/m 0,0 km/h (0 Bft) SW 225 0 min 0,000 mm 0,0 UV-I 36 W/m 1,4 C 7,3 C 0,0 km/h (0 Bft)
20.03.2016 17:00 7,3 C 66 % 1017,8 hPa 0,0 l/m 0,0 km/h (0 Bft) W-NW 300 0 min 0,000 mm 0,0 UV-I 41 W/m 1,4 C 7,3 C 1,6 km/h (1 Bft)
20.03.2016 17:05 7,3 C 67 % 1017,8 hPa 0,0 l/m 0,6 km/h (0 Bft) NW 306 0 min 0,025 mm 0,0 UV-I 50 W/m 1,6 C 7,3 C 4,8 km/h (1 Bft)
20.03.2016 17:10 7,3 C 67 % 1017,8 hPa 0,0 l/m 0,0 km/h (0 Bft) NW 306 0 min 0,000 mm 0,0 UV-I 48 W/m 1,6 C 7,3 C 0,0 km/h (0 Bft)
20.03.2016 17:15 7,3 C 67 % 1017,8 hPa 0,0 l/m 0,0 km/h (0 Bft) NW 306 0 min 0,000 mm 0,0 UV-I 44 W/m 1,6 C 7,3 C 0,0 km/h (0 Bft)
20.03.2016 17:20 7,3 C 67 % 1017,7 hPa 0,0 l/m 0,0 km/h (0 Bft) NW 306 0 min 0,000 mm 0,0 UV-I 40 W/m 1,6 C 7,3 C 0,0 km/h (0 Bft)
20.03.2016 17:25 7,4 C 67 % 1017,8 hPa 0,0 l/m 0,0 km/h (0 Bft) W-NW 301 0 min 0,000 mm 0,0 UV-I 40 W/m 1,7 C 7,4 C 0,0 km/h (0 Bft)
20.03.2016 17:30 7,3 C 68 % 1017,8 hPa 0,0 l/m 0,2 km/h (0 Bft) W-SW 247 0 min 0,000 mm 0,0 UV-I 33 W/m 1,8 C 7,3 C 3,2 km/h (1 Bft)
20.03.2016 17:35 7,3 C 68 % 1017,8 hPa 0,0 l/m 0,1 km/h (0 Bft) W-SW 239 0 min 0,000 mm 0,0 UV-I 30 W/m 1,8 C 7,3 C 3,2 km/h (1 Bft)
20.03.2016 17:40 7,2 C 68 % 1017,8 hPa 0,0 l/m 0,8 km/h (0 Bft) W 266 0 min 0,000 mm 0,0 UV-I 31 W/m 1,7 C 7,2 C 4,8 km/h (1 Bft)
20.03.2016 17:45 7,3 C 68 % 1017,7 hPa 0,0 l/m 0,0 km/h (0 Bft) W 266 0 min 0,000 mm 0,0 UV-I 35 W/m 1,8 C 7,3 C 0,0 km/h (0 Bft)
20.03.2016 17:50 7,3 C 68 % 1017,7 hPa 0,0 l/m 0,2 km/h (0 Bft) W 277 0 min 0,000 mm 0,0 UV-I 28 W/m 1,8 C 7,3 C 3,2 km/h (1 Bft)
20.03.2016 17:55 7,3 C 69 % 1017,7 hPa 0,0 l/m 0,4 km/h (0 Bft) W-NW 299 0 min 0,000 mm 0,0 UV-I 21 W/m 2,0 C 7,3 C 3,2 km/h (1 Bft)
20.03.2016 18:00 7,3 C 69 % 1017,7 hPa 0,0 l/m 0,4 km/h (0 Bft) NW 307 0 min 0,000 mm 0,0 UV-I 19 W/m 2,0 C 7,3 C 4,8 km/h (1 Bft)
20.03.2016 18:05 7,3 C 68 % 1017,7 hPa 0,0 l/m 0,1 km/h (0 Bft) W-NW 294 0 min 0,025 mm 0,0 UV-I 18 W/m 1,8 C 7,3 C 3,2 km/h (1 Bft)
20.03.2016 18:10 7,2 C 69 % 1017,7 hPa 0,0 l/m 1,7 km/h (1 Bft) W 280 0 min 0,000 mm 0,0 UV-I 13 W/m 1,9 C 7,2 C 8,0 km/h (2 Bft)
20.03.2016 18:15 7,2 C 69 % 1017,8 hPa 0,0 l/m 0,4 km/h (0 Bft) W 273 0 min 0,000 mm 0,0 UV-I 10 W/m 1,9 C 7,2 C 4,8 km/h (1 Bft)
20.03.2016 18:20 7,2 C 69 % 1017,7 hPa 0,0 l/m 1,0 km/h (0 Bft) W-SW 238 0 min 0,000 mm 0,0 UV-I 7 W/m 1,9 C 7,2 C 6,4 km/h (2 Bft)
20.03.2016 18:25 7,1 C 70 % 1017,8 hPa 0,0 l/m 1,0 km/h (0 Bft) W-NW 286 0 min 0,000 mm 0,0 UV-I 5 W/m 2,0 C 7,1 C 9,7 km/h (2 Bft)
20.03.2016 18:30 7,1 C 70 % 1017,8 hPa 0,0 l/m 0,0 km/h (0 Bft) W 267 0 min 0,000 mm 0,0 UV-I 1 W/m 2,0 C 7,1 C 0,0 km/h (0 Bft)
20.03.2016 18:35 7,1 C 70 % 1017,8 hPa 0,0 l/m 0,0 km/h (0 Bft) W 269 0 min 0,000 mm 0,0 UV-I 0 W/m 2,0 C 7,1 C 0,0 km/h (0 Bft)
20.03.2016 18:40 7,1 C 70 % 1017,7 hPa 0,0 l/m 0,3 km/h (0 Bft) W 279 0 min 0,000 mm 0,0 UV-I 0 W/m 2,0 C 7,1 C 3,2 km/h (1 Bft)
20.03.2016 18:45 7,1 C 70 % 1017,7 hPa 0,0 l/m 0,0 km/h (0 Bft) W 263 0 min 0,000 mm 0,0 UV-I 0 W/m 2,0 C 7,1 C 0,0 km/h (0 Bft)
20.03.2016 18:50 7,0 C 71 % 1017,7 hPa 0,0 l/m 0,0 km/h (0 Bft) W 263 0 min 0,000 mm 0,0 UV-I 0 W/m 2,1 C 7,0 C 0,0 km/h (0 Bft)
20.03.2016 18:55 7,0 C 71 % 1017,8 hPa 0,0 l/m 0,0 km/h (0 Bft) W 263 0 min 0,000 mm 0,0 UV-I 0 W/m 2,1 C 7,0 C 0,0 km/h (0 Bft)
20.03.2016 19:00 7,0 C 71 % 1017,9 hPa 0,0 l/m 0,0 km/h (0 Bft) W 263 0 min 0,000 mm 0,0 UV-I 0 W/m 2,1 C 7,0 C 0,0 km/h (0 Bft)
20.03.2016 19:05 6,9 C 71 % 1018,0 hPa 0,0 l/m 0,0 km/h (0 Bft) W 263 0 min 0,000 mm 0,0 UV-I 0 W/m 2,0 C 6,9 C 0,0 km/h (0 Bft)
20.03.2016 19:10 6,9 C 71 % 1018,0 hPa 0,0 l/m 0,0 km/h (0 Bft) W 263 0 min 0,000 mm 0,0 UV-I 0 W/m 2,0 C 6,9 C 0,0 km/h (0 Bft)
20.03.2016 19:15 6,9 C 71 % 1018,0 hPa 0,0 l/m 0,0 km/h (0 Bft) W 263 0 min 0,000 mm 0,0 UV-I 0 W/m 2,0 C 6,9 C 0,0 km/h (0 Bft)
20.03.2016 19:20 6,8 C 71 % 1018,0 hPa 0,0 l/m 0,0 km/h (0 Bft) W 263 0 min 0,000 mm 0,0 UV-I 0 W/m 1,9 C 6,8 C 0,0 km/h (0 Bft)
20.03.2016 19:25 6,8 C 72 % 1018,0 hPa 0,0 l/m 0,0 km/h (0 Bft) W 263 0 min 0,000 mm 0,0 UV-I 0 W/m 2,1 C 6,8 C 0,0 km/h (0 Bft)
20.03.2016 19:30 6,8 C 72 % 1018,0 hPa 0,0 l/m 0,0 km/h (0 Bft) W 263 0 min 0,000 mm 0,0 UV-I 0 W/m 2,1 C 6,8 C 0,0 km/h (0 Bft)
20.03.2016 19:35 6,8 C 72 % 1018,0 hPa 0,0 l/m 0,0 km/h (0 Bft) W 263 0 min 0,000 mm 0,0 UV-I 0 W/m 2,1 C 6,8 C 0,0 km/h (0 Bft)
20.03.2016 19:40 6,8 C 72 % 1018,1 hPa 0,0 l/m 0,1 km/h (0 Bft) W 267 0 min 0,000 mm 0,0 UV-I 0 W/m 2,1 C 6,8 C 3,2 km/h (1 Bft)
20.03.2016 19:45 6,8 C 72 % 1018,2 hPa 0,0 l/m 0,1 km/h (0 Bft) W 271 0 min 0,000 mm 0,0 UV-I 0 W/m 2,1 C 6,8 C 3,2 km/h (1 Bft)
20.03.2016 19:50 6,7 C 73 % 1018,3 hPa 0,0 l/m 0,4 km/h (0 Bft) W 276 0 min 0,000 mm 0,0 UV-I 0 W/m 2,2 C 6,7 C 6,4 km/h (2 Bft)
20.03.2016 19:55 6,7 C 73 % 1018,3 hPa 0,0 l/m 0,6 km/h (0 Bft) NW 306 0 min 0,000 mm 0,0 UV-I 0 W/m 2,2 C 6,7 C 6,4 km/h (2 Bft)
20.03.2016 20:00 6,7 C 74 % 1018,3 hPa 0,0 l/m 2,0 km/h (1 Bft) W 271 0 min 0,000 mm 0,0 UV-I 0 W/m 2,4 C 6,7 C 8,0 km/h (2 Bft)
20.03.2016 20:05 6,7 C 75 % 1018,2 hPa 0,0 l/m 2,3 km/h (1 Bft) W-NW 294 0 min 0,026 mm 0,0 UV-I 0 W/m 2,6 C 6,7 C 9,7 km/h (2 Bft)
20.03.2016 20:10 6,6 C 75 % 1018,2 hPa 0,0 l/m 2,2 km/h (1 Bft) W-NW 296 0 min 0,000 mm 0,0 UV-I 0 W/m 2,5 C 6,6 C 8,0 km/h (2 Bft)
20.03.2016 20:15 6,5 C 76 % 1018,3 hPa 0,0 l/m 2,5 km/h (1 Bft) W 269 0 min 0,000 mm 0,0 UV-I 0 W/m 2,6 C 6,5 C 8,0 km/h (2 Bft)
20.03.2016 20:20 6,4 C 78 % 1018,4 hPa 0,0 l/m 3,9 km/h (1 Bft) W-NW 290 0 min 0,000 mm 0,0 UV-I 0 W/m 2,8 C 6,4 C 8,0 km/h (2 Bft)
20.03.2016 20:25 6,4 C 78 % 1018,3 hPa 0,0 l/m 1,3 km/h (1 Bft) W 277 0 min 0,000 mm 0,0 UV-I 0 W/m 2,8 C 6,4 C 6,4 km/h (2 Bft)
20.03.2016 20:30 6,3 C 80 % 1018,3 hPa 0,0 l/m 6,0 km/h (2 Bft) NW 309 0 min 0,000 mm 0,0 UV-I 0 W/m 3,1 C 6,3 C 14,5 km/h (3 Bft)
20.03.2016 20:35 6,3 C 80 % 1018,3 hPa 0,0 l/m 2,1 km/h (1 Bft) W 271 0 min 0,000 mm 0,0 UV-I 0 W/m 3,1 C 6,3 C 8,0 km/h (2 Bft)
20.03.2016 20:40 6,2 C 80 % 1018,3 hPa 0,0 l/m 3,0 km/h (1 Bft) W-NW 284 0 min 0,000 mm 0,0 UV-I 0 W/m 3,0 C 6,2 C 9,7 km/h (2 Bft)
20.03.2016 20:45 6,2 C 80 % 1018,3 hPa 0,0 l/m 1,6 km/h (1 Bft) W-NW 298 0 min 0,000 mm 0,0 UV-I 0 W/m 3,0 C 6,2 C 8,0 km/h (2 Bft)
20.03.2016 20:50 6,1 C 80 % 1018,4 hPa 0,0 l/m 1,8 km/h (1 Bft) W-NW 299 0 min 0,000 mm 0,0 UV-I 0 W/m 2,9 C 6,1 C 9,7 km/h (2 Bft)
20.03.2016 20:55 6,1 C 81 % 1018,4 hPa 0,0 l/m 0,3 km/h (0 Bft) NW 306 0 min 0,000 mm 0,0 UV-I 0 W/m 3,1 C 6,1 C 4,8 km/h (1 Bft)
20.03.2016 21:00 6,1 C 81 % 1018,4 hPa 0,0 l/m 0,0 km/h (0 Bft) W 277 0 min 0,000 mm 0,0 UV-I 0 W/m 3,1 C 6,1 C 0,0 km/h (0 Bft)
20.03.2016 21:05 6,1 C 81 % 1018,4 hPa 0,0 l/m 0,5 km/h (0 Bft) NW 315 0 min 0,025 mm 0,0 UV-I 0 W/m 3,1 C 6,1 C 6,4 km/h (2 Bft)
20.03.2016 21:10 6,1 C 81 % 1018,3 hPa 0,0 l/m 0,0 km/h (0 Bft) W 270 0 min 0,000 mm 0,0 UV-I 0 W/m 3,1 C 6,1 C 0,0 km/h (0 Bft)
20.03.2016 21:15 6,1 C 81 % 1018,2 hPa 0,0 l/m 0,5 km/h (0 Bft) W 280 0 min 0,000 mm 0,0 UV-I 0 W/m 3,1 C 6,1 C 3,2 km/h (1 Bft)
20.03.2016 21:20 6,1 C 81 % 1018,2 hPa 0,0 l/m 0,7 km/h (0 Bft) W-SW 250 0 min 0,000 mm 0,0 UV-I 0 W/m 3,1 C 6,1 C 6,4 km/h (2 Bft)
20.03.2016 21:25 6,0 C 81 % 1018,2 hPa 0,0 l/m 1,0 km/h (0 Bft) W 269 0 min 0,000 mm 0,0 UV-I 0 W/m 3,0 C 6,0 C 4,8 km/h (1 Bft)
20.03.2016 21:30 6,0 C 82 % 1018,4 hPa 0,0 l/m 0,4 km/h (0 Bft) W 268 0 min 0,000 mm 0,0 UV-I 0 W/m 3,2 C 6,0 C 4,8 km/h (1 Bft)
20.03.2016 21:35 5,9 C 82 % 1018,4 hPa 0,0 l/m 0,0 km/h (0 Bft) W 266 0 min 0,000 mm 0,0 UV-I 0 W/m 3,1 C 5,9 C 0,0 km/h (0 Bft)
20.03.2016 21:40 5,9 C 82 % 1018,2 hPa 0,0 l/m 0,0 km/h (0 Bft) W 273 0 min 0,000 mm 0,0 UV-I 0 W/m 3,1 C 5,9 C 0,0 km/h (0 Bft)
20.03.2016 21:45 5,9 C 82 % 1018,2 hPa 0,0 l/m 1,3 km/h (1 Bft) NW 304 0 min 0,000 mm 0,0 UV-I 0 W/m 3,1 C 5,9 C 4,8 km/h (1 Bft)
20.03.2016 21:50 5,9 C 82 % 1018,1 hPa 0,0 l/m 0,3 km/h (0 Bft) SW 219 0 min 0,000 mm 0,0 UV-I 0 W/m 3,1 C 5,9 C 4,8 km/h (1 Bft)
20.03.2016 21:55 5,8 C 82 % 1018,2 hPa 0,0 l/m 0,8 km/h (0 Bft) W 261 0 min 0,000 mm 0,0 UV-I 0 W/m 3,0 C 5,8 C 4,8 km/h (1 Bft)
20.03.2016 22:00 5,8 C 83 % 1018,2 hPa 0,0 l/m 0,0 km/h (0 Bft) W 262 0 min 0,000 mm 0,0 UV-I 0 W/m 3,1 C 5,8 C 0,0 km/h (0 Bft)
20.03.2016 22:05 5,8 C 83 % 1018,3 hPa 0,0 l/m 0,5 km/h (0 Bft) W-SW 248 0 min 0,000 mm 0,0 UV-I 0 W/m 3,1 C 5,8 C 6,4 km/h (2 Bft)
20.03.2016 22:10 5,8 C 83 % 1018,3 hPa 0,0 l/m 0,5 km/h (0 Bft) W-SW 244 0 min 0,000 mm 0,0 UV-I 0 W/m 3,1 C 5,8 C 4,8 km/h (1 Bft)
20.03.2016 22:15 5,8 C 83 % 1018,3 hPa 0,0 l/m 1,0 km/h (0 Bft) W-SW 248 0 min 0,000 mm 0,0 UV-I 0 W/m 3,1 C 5,8 C 4,8 km/h (1 Bft)
20.03.2016 22:20 5,8 C 83 % 1018,3 hPa 0,0 l/m 0,2 km/h (0 Bft) W 260 0 min 0,000 mm 0,0 UV-I 0 W/m 3,1 C 5,8 C 3,2 km/h (1 Bft)
20.03.2016 22:25 5,7 C 84 % 1018,2 hPa 0,0 l/m 0,0 km/h (0 Bft) W-SW 258 0 min 0,000 mm 0,0 UV-I 0 W/m 3,2 C 5,7 C 0,0 km/h (0 Bft)
20.03.2016 22:30 5,7 C 84 % 1018,2 hPa 0,0 l/m 0,1 km/h (0 Bft) W-SW 249 0 min 0,000 mm 0,0 UV-I 0 W/m 3,2 C 5,7 C 3,2 km/h (1 Bft)
20.03.2016 22:35 5,7 C 84 % 1018,2 hPa 0,0 l/m 0,0 km/h (0 Bft) NW 313 0 min 0,000 mm 0,0 UV-I 0 W/m 3,2 C 5,7 C 1,6 km/h (1 Bft)
20.03.2016 22:40 5,6 C 84 % 1018,2 hPa 0,0 l/m 0,0 km/h (0 Bft) W-SW 248 0 min 0,000 mm 0,0 UV-I 0 W/m 3,1 C 5,6 C 0,0 km/h (0 Bft)
20.03.2016 22:45 5,6 C 84 % 1018,2 hPa 0,0 l/m 0,1 km/h (0 Bft) W 276 0 min 0,000 mm 0,0 UV-I 0 W/m 3,1 C 5,6 C 3,2 km/h (1 Bft)
20.03.2016 22:50 5,6 C 84 % 1018,3 hPa 0,0 l/m 0,1 km/h (0 Bft) NW 308 0 min 0,000 mm 0,0 UV-I 0 W/m 3,1 C 5,6 C 3,2 km/h (1 Bft)
20.03.2016 22:55 5,6 C 84 % 1018,3 hPa 0,0 l/m 0,0 km/h (0 Bft) W-NW 294 0 min 0,000 mm 0,0 UV-I 0 W/m 3,1 C 5,6 C 0,0 km/h (0 Bft)
20.03.2016 23:00 5,6 C 85 % 1018,3 hPa 0,0 l/m 0,0 km/h (0 Bft) W-NW 293 0 min 0,000 mm 0,0 UV-I 0 W/m 3,3 C 5,6 C 0,0 km/h (0 Bft)
20.03.2016 23:05 5,6 C 85 % 1018,2 hPa 0,0 l/m 0,0 km/h (0 Bft) W 275 0 min 0,000 mm 0,0 UV-I 0 W/m 3,3 C 5,6 C 0,0 km/h (0 Bft)
20.03.2016 23:10 5,6 C 85 % 1018,3 hPa 0,0 l/m 0,2 km/h (0 Bft) W-NW 298 0 min 0,000 mm 0,0 UV-I 0 W/m 3,3 C 5,6 C 3,2 km/h (1 Bft)
20.03.2016 23:15 5,6 C 85 % 1018,3 hPa 0,0 l/m 0,2 km/h (0 Bft) NW 305 0 min 0,000 mm 0,0 UV-I 0 W/m 3,3 C 5,6 C 3,2 km/h (1 Bft)
20.03.2016 23:20 5,6 C 86 % 1018,3 hPa 0,0 l/m 0,9 km/h (0 Bft) W 259 0 min 0,000 mm 0,0 UV-I 0 W/m 3,4 C 5,6 C 4,8 km/h (1 Bft)
20.03.2016 23:25 5,6 C 86 % 1018,3 hPa 0,0 l/m 2,2 km/h (1 Bft) W-NW 291 0 min 0,000 mm 0,0 UV-I 0 W/m 3,4 C 5,6 C 4,8 km/h (1 Bft)
20.03.2016 23:30 5,6 C 87 % 1018,3 hPa 0,0 l/m 0,6 km/h (0 Bft) W-NW 301 0 min 0,000 mm 0,0 UV-I 0 W/m 3,6 C 5,6 C 4,8 km/h (1 Bft)
20.03.2016 23:35 5,6 C 87 % 1018,3 hPa 0,0 l/m 0,1 km/h (0 Bft) W 271 0 min 0,000 mm 0,0 UV-I 0 W/m 3,6 C 5,6 C 1,6 km/h (1 Bft)
20.03.2016 23:40 5,5 C 88 % 1018,3 hPa 0,0 l/m 0,0 km/h (0 Bft) W-SW 250 0 min 0,000 mm 0,0 UV-I 0 W/m 3,7 C 5,5 C 0,0 km/h (0 Bft)
20.03.2016 23:45 5,4 C 88 % 1018,3 hPa 0,0 l/m 0,0 km/h (0 Bft) W 263 0 min 0,000 mm 0,0 UV-I 0 W/m 3,6 C 5,4 C 0,0 km/h (0 Bft)
20.03.2016 23:50 5,4 C 89 % 1018,3 hPa 0,0 l/m 0,0 km/h (0 Bft) W 268 0 min 0,000 mm 0,0 UV-I 0 W/m 3,7 C 5,4 C 0,0 km/h (0 Bft)
20.03.2016 23:55 5,4 C 89 % 1018,2 hPa 0,0 l/m 0,1 km/h (0 Bft) W-SW 238 0 min 0,000 mm 0,0 UV-I 0 W/m 3,7 C 5,4 C 1,6 km/h (1 Bft)
_ Min-Zeit 06:45 15:00 16:40 - 00:00 - - - - - - 01:40 06:45 00:00
Minimum _ 3,2 C 64 % 1017,7 hPa - 0,0 km/h (0 Bft) - - - - - - -0,0 C 3,2 C 0,0 km/h (0 Bft)
_ Max-Zeit 16:30 23:50 00:00 00:00 20:30 - - 00:00 15:05 11:20 11:20 23:50 16:30 09:55
Maximum _ 7,4 C 89 % 1021,2 hPa 0,0 l/m 6,0 km/h
NW (2 Bft)
- - 0 min 0,102 mm 1,4 UV-I 257 W/m 3,7 C 7,4 C 17,7 km/h
W (3 Bft)
Durchschnitt _ 5,2 C 76 % 1019,2 hPa #0,0 l/m 0,6 km/h (0 Bft) W-NW - #0 min. #0,584 mm 0,9 UV-I 102 W/m 1,4 C 5,2 C 3,7 km/h (1 Bft)